Weather in Mogi Guacu

Brazil     22°21′02″S   46°57′18″W
temp.,
°C
wind,
m/s
gust,
m/s
humid.,
%
clouds,
%
prec.,
mm/h
press.,
hPa
HPBL,
m
1 december, wed
wed100:00+19nne26965 0.8 1009137
03:00+19n23976 0.9 100868
06:00+19nne139610 0.0 1010139
09:00+25nnw337629 0.2 1010768
12:00+30wnw244812 0.3 10082142
15:00+31wsw45360 0.3 10062729
18:00+26sw255410 0.0 1007104
21:00+22se22620 0.0 100918
2 december, thu
thu200:00+20wnw01750 0.0 101011
03:00+18s11890 0.0 101025
06:00+19ese11840 0.0 101246
09:00+26nw11560 0.0 1012706
12:00+31sw22390 0.0 10102148
15:00+32ssw443483 0.0 10072623
18:00+27s1253100 0.0 100622
21:00+22s367534 0.0 1010196
3 december, fri
fri300:00+19s36835 0.0 1011190
03:00+18ssw12910 0.1 100942
06:00+18sse12891 0.1 1011101
09:00+25ese225914 0.1 1012860
12:00+31ssw124329 0.1 10101873
15:00+29sse124776 0.1 1007917
18:00+25sse3660100 0.1 1009420
21:00+20sse410760 0.1 1012338
4 december, sat
sat400:00+18s23850 0.0 101384
03:00+17sse11910 0.0 101214
06:00+17se12870 0.0 101585
09:00+25nne12570 0.0 1015887
12:00+31wsw11380 0.0 10131911
15:00+32sse33305 0.0 10102805
18:00+27s244290 0.0 101172
21:00+21sse37710 0.0 1013240
5 december, sun
sun500:00+20sse12805 0.0 101344
03:00+19ne11801 0.0 101416
06:00+19ese13810 0.0 1015120
09:00+27nw12545 0.0 1015944
12:00+32nw22340 0.0 10132725
15:00+33nne1228100 0.0 10102982
18:00+27ene364386 0.0 1009144
21:00+24ese115596 0.0 101111